カタログに戻る

LEOPARD

運用中科学VLEO
NORAD 67687·PAYLOAD·🇯🇵 Japan

打ち上げ Nov 20, 1998 から Baikonur Cosmodrome

Loading…

次のパス (今後24時間)

TLE

最新Source: Space-Track

元期: Sep 14, 2026, 13:42 UTC

1 67687U 98067YD  26257.57089780  .00145956  00000-0  99454-3 0  9994
2 67687  51.6251 200.1566 0008181 138.9142 221.2474 15.73856885 34210

AllMySatでLEOPARDをリアルタイム追跡

Download on the App Store